Alma, GA

5:30 PM EST on February 20, 2018 (GMT -0500)
Bacon County

Weather History for KAMG - September, 2013

Change the Weather History Date:

Saturday, September 28, 2013

  Actual Average Record
Temperature  
Mean Temperature 71 °F 74 °F  
Max Temperature 80 °F 84 °F 96 °F (1986)
Min Temperature 62 °F 64 °F 46 °F (1962)
Degree Days  
Heating Degree Days 0 0  
Month to date heating degree days 0 0  
Since 1 July heating degree days 0 0  
Cooling Degree Days 6 9  
Month to date cooling degree days 369 344  
Year to date cooling degree days 2146 2251  
Growing Degree Days 21 (Base 50)    
Moisture  
Dew Point 58 °F    
Average Humidity 68    
Maximum Humidity 93    
Minimum Humidity 42    
Precipitation  
Precipitation 0.00 in 0.11 in 1.80 in (1984)
Month to date precipitation 2.12 3.42  
Year to date precipitation 44.99 37.63  
Snow  
Snow 0.00 in 0.00 in 0.00 in ()
Month to date snowfall 0.0 0.0  
Since 1 July snowfall 0.0 0.0  
Since 1 September snowfall 0.0 0.0  
Snow Depth 0.00 in    
Sea Level Pressure  
Sea Level Pressure 30.09 in    
Wind  
Wind Speed 4 mph (NE)    
Max Wind Speed 13 mph    
Max Gust Speed 17 mph    
Visibility 10 miles    
Events      
T = Trace of Precipitation, MM = Missing Value Source: NWS Daily Summary

Daily Weather History Graph

Daily Weather History Graph

Search for Another Location

Airport or City:

Trip Planner

Search our weather history database for the weather conditions in past years. The results will help you decide how hot, cold, wet, or windy it might be!

Date:

Astronomy

Sep. 28, 2013 Rise Set
Actual Time 7:22 AM EDT 7:18 PM EDT
Civil Twilight 6:57 AM EDT 7:42 PM EDT
Nautical Twilight 6:29 AM EDT 8:10 PM EDT
Astronomical Twilight 6:01 AM EDT 8:39 PM EDT
Moon 1:27 AM EDT (9/28) 3:18 PM EDT (9/28)
Length of Visible Light 12h 44m
Length of Day
11h 56m
Last Quarter, 36% of the Moon is Illuminated
Sep 28
Last Quarter
Oct 4
New
Oct 11
First Quarter
Oct 18
Full
Oct 26
Last Quarter

Hourly Weather History & Observations

Time (EDT) Temp. Heat Index Dew Point Humidity Pressure Visibility Wind Dir Wind Speed Gust Speed Precip Events Conditions
12:53 AM 64.9 °F - 60.1 °F 84% 30.07 in 10.0 mi Variable 3.5 mph - N/A   Clear
1:53 AM 64.0 °F - 60.1 °F 87% 30.07 in 10.0 mi Calm Calm - N/A   Clear
2:53 AM 64.0 °F - 60.1 °F 87% 30.06 in 10.0 mi Variable 3.5 mph - N/A   Clear
3:53 AM 64.0 °F - 59.0 °F 84% 30.06 in 10.0 mi NE 5.8 mph - N/A   Clear
4:53 AM 63.0 °F - 57.9 °F 84% 30.06 in 10.0 mi NNE 4.6 mph - N/A   Clear
5:53 AM 62.1 °F - 57.9 °F 86% 30.08 in 10.0 mi Calm Calm - N/A   Clear
6:53 AM 62.1 °F - 57.0 °F 84% 30.09 in 10.0 mi Variable 4.6 mph - N/A   Mostly Cloudy
7:53 AM 63.0 °F - 57.0 °F 81% 30.11 in 10.0 mi Variable 4.6 mph - N/A   Mostly Cloudy
8:53 AM 64.0 °F - 57.0 °F 78% 30.12 in 10.0 mi Variable 4.6 mph - N/A   Overcast
9:53 AM 69.1 °F - 57.0 °F 65% 30.14 in 10.0 mi NE 5.8 mph - N/A   Scattered Clouds
10:53 AM 73.0 °F - 54.0 °F 51% 30.14 in 10.0 mi NE 9.2 mph - N/A   Clear
11:53 AM 73.9 °F - 53.1 °F 48% 30.14 in 10.0 mi ENE 9.2 mph 17.3 mph N/A   Clear
12:53 PM 75.9 °F - 53.1 °F 45% 30.13 in 10.0 mi Variable 6.9 mph - N/A   Clear
1:53 PM 78.1 °F - 54.0 °F 43% 30.10 in 10.0 mi Variable 6.9 mph - N/A   Clear
2:53 PM 79.0 °F - 55.0 °F 44% 30.08 in 10.0 mi Variable 5.8 mph - N/A   Clear
3:53 PM 80.1 °F 80.4 °F 57.0 °F 45% 30.07 in 10.0 mi North 6.9 mph - N/A   Clear
4:53 PM 80.1 °F 80.4 °F 57.0 °F 45% 30.06 in 10.0 mi NNE 5.8 mph - N/A   Clear
5:53 PM 78.1 °F - 57.9 °F 50% 30.07 in 10.0 mi NE 4.6 mph - N/A   Partly Cloudy
6:53 PM 75.0 °F - 57.9 °F 55% 30.07 in 10.0 mi Variable 3.5 mph - N/A   Clear
7:53 PM 69.1 °F - 59.0 °F 70% 30.07 in 10.0 mi Calm Calm - N/A   Clear
8:53 PM 68.0 °F - 60.1 °F 76% 30.08 in 10.0 mi Calm Calm - N/A   Clear
9:53 PM 66.9 °F - 61.0 °F 81% 30.09 in 10.0 mi Calm Calm - N/A   Partly Cloudy
10:53 PM 66.0 °F - 62.1 °F 87% 30.09 in 10.0 mi Calm Calm - N/A   Mostly Cloudy
11:53 PM 64.9 °F - 62.1 °F 90% 30.09 in 10.0 mi NNE 3.5 mph - N/A   Clear